Wind_Speed
11 12 13 14 15 16 16 16 16 16 15 14 14 14 14 12 11 10 9 9 8 8 8 8 9 10 11 13 15 17 18 19 21 22 24 26 27 28 30 32 33 34 35
11 12 12 13 15 15 16 16 15 15 15 14 14 14 14 13 12 11 10 10 9 9 8 8 9 10 11 13 15 16 18 19 20 21 23 24 25 27 29 31 33 34 35
11 11 12 13 14 15 15 15 15 16 15 14 14 14 14 13 13 12 11 11 10 10 9 10 10 11 11 12 15 17 18 19 19 20 21 23 24 25 26 28 31 33 34
11 12 12 13 14 14 14 15 16 16 15 15 15 14 14 14 13 13 12 12 11 10 10 10 10 11 11 11 13 15 17 18 18 19 20 21 22 23 24 26 28 30 32
12 12 12 13 13 13 14 15 15 16 16 15 15 15 15 14 14 14 13 13 12 11 11 11 11 10 11 11 12 13 15 16 17 18 19 21 22 23 24 25 26 27 30
13 13 13 13 13 14 14 15 15 16 16 16 16 15 15 15 15 15 14 14 13 12 12 11 11 11 11 11 11 12 13 14 16 17 18 20 22 22 23 24 25 27 27
15 14 14 14 14 14 14 15 15 15 16 16 16 16 16 16 15 15 15 15 14 14 12 12 11 11 11 11 11 12 12 14 15 16 17 18 19 20 22 23 24 25 26
17 16 16 15 15 15 15 15 15 15 16 16 16 16 16 16 16 16 16 15 15 14 13 12 12 11 11 11 11 11 12 12 13 15 16 17 17 18 20 21 22 24 25
19 18 17 17 16 16 16 15 16 16 16 16 16 16 16 16 16 16 16 16 16 15 14 13 13 12 12 11 12 12 13 13 14 15 16 18 18 18 19 21 22 23 24
21 20 19 19 18 17 17 17 16 17 17 17 16 16 16 16 16 16 17 17 16 16 15 14 14 13 13 13 13 13 14 14 14 15 16 17 18 19 20 21 22 23 24
23 22 22 21 20 19 19 18 18 18 18 17 17 17 17 17 17 17 17 17 17 17 16 16 15 15 14 14 14 15 15 15 15 16 17 17 18 19 20 21 22 23 24
25 24 24 23 22 21 21 20 20 19 19 18 18 18 18 18 18 18 18 19 19 18 18 17 16 16 16 15 15 16 16 16 16 17 18 18 20 21 21 22 22 23 25
27 27 26 25 24 23 23 22 21 21 20 20 20 19 19 19 19 20 20 20 20 19 19 18 18 17 17 17 17 17 18 18 18 18 19 20 21 21 22 23 24 25 26
29 29 28 27 26 26 25 24 23 23 22 22 21 21 20 20 20 20 21 21 20 20 20 19 19 19 18 18 19 19 19 19 20 20 21 22 23 23 24 24 25 26 27
32 31 30 29 28 27 27 26 25 24 24 23 23 22 22 21 21 21 21 21 21 21 20 20 20 20 20 20 20 21 21 22 22 22 23 23 24 25 26 26 27 27 28
33 33 32 31 30 29 28 28 27 26 25 25 24 24 23 23 23 23 23 22 22 22 22 22 22 22 22 22 22 22 23 24 24 25 25 26 27 27 28 29 30 30 31
35 34 33 33 32 31 30 29 28 28 27 27 26 25 25 25 24 24 24 24 24 24 24 24 24 24 24 24 24 24 25 25 26 27 27 28 29 30 31 31 32 33 34
36 36 35 34 33 32 32 31 30 29 29 28 28 27 27 26 26 26 26 26 26 26 26 26 26 26 26 26 26 27 27 28 28 29 29 30 31 32 33 34 34 35 36
38 37 36 35 34 34 33 32 32 31 30 30 29 29 29 28 28 28 28 28 28 28 29 29 28 28 28 28 28 29 29 29 30 30 31 32 33 34 35 35 36 36 37
40 39 38 36 35 35 34 34 33 33 32 31 31 31 30 30 30 30 30 30 30 31 31 31 31 31 30 30 31 31 31 31 32 32 33 34 35 35 36 37 38 38 39
42 41 40 38 37 36 36 35 34 34 33 33 32 32 32 32 31 31 31 31 32 32 32 33 33 32 33 33 33 33 33 33 34 34 35 36 36 37 38 38 39 40 41
45 44 42 41 39 38 37 37 36 35 35 35 34 34 34 33 33 33 33 33 33 34 34 34 34 34 34 34 34 34 35 35 35 36 37 37 38 39 40 40 41 42 43
46 46 45 43 42 40 39 39 38 37 36 36 36 35 35 35 35 35 35 35 36 36 36 36 36 36 36 36 36 36 36 36 37 38 39 39 40 41 42 42 43 44 45
47 47 47 46 44 43 42 41 40 39 38 38 37 37 37 37 37 37 37 38 38 38 38 38 38 37 37 37 37 37 38 38 39 40 40 41 42 43 44 44 45 46 47
48 48 48 48 46 45 44 43 42 41 40 40 39 39 39 39 39 39 39 39 39 39 38 39 39 39 38 38 39 39 39 40 40 41 42 43 44 44 45 46 47 48 48
49 50 49 49 48 47 46 45 44 43 43 42 42 42 41 41 41 40 40 40 40 40 40 40 40 40 40 39 40 40 41 41 42 43 44 45 45 45 46 47 48 49 49
Wind_Direction
326 332 338 342 345 347 349 351 354 355 355 356 356 357 357 354 351 348 345 340 329 315 301 287 273 263 255 249 246 244 242 243 243 243 242 241 242 242 242 241 240 240 241
319 326 333 338 342 345 347 349 351 353 353 353 353 355 356 356 352 347 344 341 334 323 311 298 283 271 260 252 249 248 248 248 248 246 245 245 246 246 245 244 243 243 243
313 320 326 332 337 342 345 347 349 350 350 351 351 351 352 353 352 349 345 341 335 326 317 306 294 283 274 262 253 250 250 251 251 251 251 250 249 249 249 247 245 243 243
306 313 320 326 332 336 341 344 346 348 348 348 348 348 348 348 348 345 343 341 337 331 323 315 306 295 286 274 262 257 253 252 253 255 255 253 251 251 252 251 249 246 245
298 306 313 320 326 330 335 339 342 345 346 346 347 346 345 344 343 341 339 338 334 330 325 318 313 305 297 285 273 265 260 257 257 258 258 257 256 254 253 252 250 248 247
289 297 305 311 318 323 327 332 337 339 341 342 343 344 344 342 341 340 338 337 333 328 323 317 313 307 301 291 282 273 266 263 263 263 263 261 261 258 255 253 251 250 248
281 289 296 303 308 314 319 325 329 333 336 337 338 339 339 339 339 339 337 335 332 329 322 316 311 308 302 295 286 279 272 269 267 267 266 265 264 262 259 256 255 253 252
275 281 288 294 301 306 311 317 322 326 330 333 333 334 334 335 336 336 335 333 331 327 323 319 313 306 302 298 291 286 281 279 276 273 272 270 270 269 265 261 259 257 257
271 276 281 287 292 298 303 309 314 319 322 326 328 329 330 331 332 333 333 333 330 327 324 318 313 307 301 297 294 290 286 281 278 277 277 273 272 272 270 267 264 263 262
268 272 276 281 285 290 296 301 307 312 316 318 321 324 326 327 328 330 330 330 329 328 325 320 314 308 301 298 295 291 288 286 283 282 280 277 275 273 272 272 270 267 265
266 269 272 276 280 284 289 294 299 304 309 312 314 317 319 321 323 325 326 326 326 325 323 318 313 308 304 300 295 291 288 285 283 284 283 279 278 278 277 275 273 270 269
264 266 269 272 275 279 283 288 292 297 302 305 308 310 313 315 317 320 321 322 323 322 321 317 312 306 303 300 297 294 291 287 284 285 285 282 281 281 280 278 277 275 273
263 264 266 269 272 275 278 283 287 291 295 299 302 304 307 309 311 315 316 317 317 318 318 316 312 306 302 299 297 294 293 289 286 286 285 284 285 284 282 280 278 278 277
261 262 264 266 269 271 275 278 282 286 290 294 297 299 302 304 307 311 313 315 315 314 314 314 311 307 302 298 296 294 294 292 290 288 287 286 286 286 285 282 280 280 279
260 261 262 264 267 269 272 275 278 281 285 289 292 295 297 300 302 305 309 310 312 312 312 311 310 307 304 300 297 294 293 292 291 290 289 288 287 286 286 285 282 281 280
259 259 261 262 264 267 269 272 275 278 282 285 288 291 293 296 298 301 304 306 307 309 309 309 308 306 303 301 298 296 294 293 292 290 290 289 288 287 286 285 285 284 282
257 258 259 260 262 264 267 270 272 275 279 282 285 287 290 293 295 298 301 303 304 305 307 307 306 305 303 300 298 297 295 294 293 292 290 290 289 289 288 287 286 285 284
256 257 258 259 260 262 264 267 270 273 276 279 282 285 287 291 293 296 298 300 301 302 303 304 305 303 302 301 298 297 296 295 294 293 292 291 291 290 290 289 288 287 285
253 255 256 258 259 261 263 265 268 270 273 277 280 283 285 288 291 293 294 297 298 300 300 301 302 302 301 300 299 297 296 295 295 294 293 292 292 292 291 290 289 288 287
251 252 254 255 257 259 261 263 266 269 271 275 278 281 283 286 289 291 293 294 296 297 298 298 299 299 298 298 298 297 296 295 295 295 294 294 293 292 292 291 290 290 288
249 250 251 253 255 258 260 262 265 267 270 273 276 278 281 284 286 289 291 293 294 296 297 297 297 297 297 297 297 296 295 295 295 295 295 295 294 294 294 293 292 291 290
248 248 249 251 252 255 258 261 263 266 269 272 274 277 280 282 285 288 290 292 293 295 296 296 296 296 296 296 295 295 294 294 294 294 295 295 295 295 295 294 294 293 292
247 247 248 250 251 254 256 259 262 265 267 270 273 276 279 282 284 287 289 291 293 295 295 295 295 295 294 294 294 294 294 294 294 294 295 295 295 295 295 295 295 295 294
246 246 247 248 250 252 255 257 260 263 266 269 272 275 279 282 284 286 288 290 292 293 294 294 295 294 293 294 294 293 293 294 295 295 295 295 296 296 296 295 296 296 295
245 245 246 247 249 251 254 256 259 262 265 268 271 275 278 281 284 286 288 290 291 292 293 294 294 293 293 293 293 293 293 294 295 296 296 297 297 297 297 297 296 296 296
244 244 245 246 248 251 253 256 259 262 264 267 270 274 277 280 282 285 286 288 290 291 293 293 293 293 292 292 292 292 293 294 295 296 297 298 298 298 298 298 298 298 297
Height
5814 5812 5810 5808 5805 5802 5799 5796 5793 5790 5787 5785 5782 5779 5777 5775 5773 5771 5770 5768 5768 5767 5766 5766 5766 5767 5768 5770 5771 5773 5776 5778 5780 5783 5785 5788 5790 5793 5796 5798 5801 5804 5808
5813 5811 5809 5807 5804 5801 5799 5796 5793 5790 5787 5785 5782 5779 5777 5775 5773 5771 5769 5768 5766 5765 5764 5764 5763 5764 5764 5766 5767 5769 5771 5773 5775 5777 5779 5781 5783 5785 5788 5790 5793 5796 5799
5811 5809 5807 5805 5803 5800 5798 5795 5792 5789 5786 5784 5782 5779 5777 5774 5772 5770 5768 5767 5765 5764 5762 5761 5761 5760 5760 5761 5762 5764 5766 5768 5769 5771 5773 5774 5776 5778 5780 5782 5785 5788 5790
5809 5807 5806 5804 5802 5799 5797 5794 5791 5788 5786 5783 5781 5778 5776 5774 5771 5769 5767 5765 5764 5762 5760 5759 5758 5757 5757 5757 5758 5759 5761 5762 5764 5766 5767 5768 5770 5771 5773 5775 5777 5779 5782
5806 5805 5803 5802 5800 5798 5795 5793 5790 5787 5785 5782 5780 5777 5775 5773 5770 5768 5766 5764 5762 5760 5759 5757 5756 5755 5754 5754 5754 5755 5756 5758 5759 5760 5761 5762 5764 5765 5766 5768 5769 5771 5773
5803 5802 5801 5799 5798 5796 5794 5791 5789 5786 5784 5781 5778 5776 5774 5771 5769 5766 5764 5762 5760 5758 5757 5755 5754 5753 5752 5751 5751 5751 5752 5753 5754 5755 5756 5757 5758 5759 5760 5761 5762 5764 5766
5799 5798 5797 5796 5795 5793 5791 5789 5787 5785 5782 5780 5777 5775 5772 5770 5767 5764 5762 5760 5758 5756 5754 5753 5752 5751 5749 5748 5748 5748 5749 5749 5750 5751 5751 5751 5752 5753 5753 5754 5755 5756 5758
5795 5794 5794 5793 5791 5790 5788 5787 5785 5782 5780 5778 5775 5773 5770 5768 5765 5763 5760 5758 5756 5754 5752 5750 5749 5748 5747 5746 5745 5745 5745 5745 5746 5746 5746 5747 5747 5747 5748 5748 5749 5750 5751
5790 5789 5789 5788 5787 5786 5785 5783 5781 5779 5777 5775 5773 5771 5768 5766 5763 5761 5758 5756 5754 5751 5749 5748 5746 5745 5744 5743 5742 5742 5742 5742 5742 5742 5742 5742 5741 5742 5742 5742 5743 5744 5745
5784 5784 5784 5783 5783 5782 5781 5779 5778 5776 5774 5772 5770 5768 5766 5763 5761 5758 5756 5754 5751 5749 5747 5745 5743 5742 5741 5740 5739 5738 5738 5738 5737 5737 5737 5737 5737 5736 5736 5736 5737 5737 5737
5778 5778 5778 5778 5777 5777 5776 5775 5773 5772 5770 5768 5767 5765 5762 5760 5758 5756 5753 5751 5748 5746 5744 5742 5740 5738 5737 5736 5735 5734 5734 5733 5733 5733 5732 5732 5731 5731 5730 5730 5730 5730 5730
5771 5771 5771 5771 5771 5771 5770 5769 5768 5767 5766 5764 5762 5761 5759 5756 5754 5752 5749 5747 5745 5742 5740 5738 5736 5734 5733 5732 5731 5730 5729 5728 5728 5727 5727 5726 5726 5725 5724 5724 5723 5723 5723
5763 5763 5764 5764 5764 5764 5764 5763 5763 5762 5760 5759 5757 5756 5754 5752 5750 5748 5745 5743 5740 5738 5736 5734 5732 5730 5729 5728 5726 5725 5724 5723 5722 5722 5721 5720 5719 5719 5718 5717 5716 5715 5715
5755 5755 5756 5756 5757 5757 5757 5757 5756 5755 5754 5753 5752 5750 5749 5747 5745 5743 5740 5738 5736 5733 5731 5729 5727 5726 5724 5723 5721 5720 5719 5717 5716 5715 5714 5713 5713 5712 5711 5710 5709 5708 5707
5745 5746 5747 5748 5749 5749 5749 5749 5749 5748 5747 5747 5745 5744 5743 5741 5739 5737 5735 5733 5731 5728 5726 5724 5722 5720 5719 5717 5715 5714 5713 5711 5710 5709 5707 5706 5705 5704 5703 5701 5700 5699 5698
5736 5737 5738 5739 5740 5741 5741 5741 5741 5741 5740 5739 5738 5737 5736 5735 5733 5731 5729 5727 5725 5723 5721 5719 5717 5714 5712 5711 5709 5707 5706 5704 5703 5701 5700 5698 5697 5695 5694 5692 5691 5689 5688
5725 5726 5728 5729 5730 5731 5732 5732 5732 5733 5732 5731 5731 5730 5729 5727 5726 5724 5722 5721 5719 5717 5715 5712 5710 5708 5706 5704 5702 5700 5698 5697 5695 5693 5691 5690 5688 5686 5684 5682 5680 5678 5677
5714 5715 5717 5719 5720 5721 5722 5723 5723 5724 5724 5723 5722 5722 5721 5719 5718 5717 5715 5713 5711 5709 5707 5705 5703 5701 5698 5696 5694 5692 5690 5688 5686 5684 5682 5680 5678 5676 5674 5672 5669 5667 5665
5702 5704 5706 5708 5709 5710 5712 5713 5713 5714 5714 5714 5714 5713 5712 5711 5710 5708 5707 5705 5704 5702 5699 5697 5695 5693 5690 5688 5686 5684 5682 5679 5677 5675 5672 5670 5668 5665 5663 5660 5657 5655 5652
5689 5691 5694 5696 5698 5699 5701 5702 5703 5704 5704 5705 5704 5704 5703 5702 5701 5700 5698 5697 5695 5693 5691 5689 5686 5684 5682 5679 5677 5675 5672 5670 5667 5665 5662 5659 5656 5654 5651 5648 5645 5642 5639
5676 5678 5681 5684 5686 5688 5689 5691 5692 5693 5694 5695 5695 5694 5693 5693 5692 5690 5689 5687 5686 5684 5681 5679 5677 5675 5672 5670 5667 5665 5662 5659 5657 5654 5651 5648 5645 5642 5639 5636 5632 5629 5625
5661 5665 5668 5671 5673 5676 5678 5679 5681 5682 5683 5684 5684 5684 5683 5683 5682 5680 5679 5678 5676 5674 5671 5669 5667 5664 5662 5659 5657 5654 5652 5649 5646 5643 5640 5636 5633 5630 5626 5622 5619 5615 5611
5647 5651 5654 5657 5660 5663 5665 5667 5669 5670 5671 5672 5673 5673 5672 5672 5671 5670 5669 5667 5665 5663 5661 5659 5656 5654 5651 5648 5646 5643 5640 5637 5634 5631 5628 5624 5620 5617 5613 5609 5605 5600 5596
5631 5636 5640 5643 5647 5650 5652 5654 5656 5658 5659 5660 5661 5661 5661 5661 5660 5659 5657 5656 5654 5652 5650 5647 5645 5642 5640 5637 5634 5631 5628 5625 5622 5619 5615 5611 5608 5603 5599 5595 5590 5585 5581
5616 5620 5624 5629 5633 5636 5639 5641 5644 5646 5647 5648 5649 5649 5649 5649 5648 5647 5646 5644 5642 5640 5638 5636 5633 5631 5628 5625 5622 5619 5616 5613 5609 5606 5602 5598 5594 5589 5585 5580 5575 5570 5565
5600 5605 5609 5614 5618 5622 5625 5628 5630 5633 5634 5636 5636 5637 5637 5637 5636 5635 5634 5632 5631 5629 5626 5624 5621 5619 5616 5613 5610 5607 5603 5600 5597 5593 5589 5585 5580 5575 5570 5565 5560 5555 5549